When you browse on this site, cookies collect data to enhance your experience and personalize the content and advertising you see.
Visit our Privacy Policy to learn more. By continuing to use the site, you agree to this use of cookies and data.
  • In Romania
  • List of Countries
  • For 7 days
  • Water Temperature
  • Satellite Maps
  • Weather Map
  • Weather Widgets
  • user-avatar
    Login

    Hourly Weather Montana

    Today, 24 May, Friday

    Time Temperature Precipitation Wind Pressure Humidity
    00:00 +13°C° 0 mm 2 mps 731 mmHg 90%
    01:00 +13°C° 0 mm 2 mps 731 mmHg 90%
    02:00 +13°C° 0 mm 2 mps 731 mmHg 90%
    03:00 +13°C° 0 mm 2 mps 731 mmHg 90%
    04:00 +13°C° 0 mm 2 mps 731 mmHg 90%
    05:00 +13°C° 0 mm 2 mps 731 mmHg 90%
    06:00 +14°C° 0 mm 2 mps 731 mmHg 86%
    07:00 +14°C° 0 mm 3 mps 731 mmHg 82%
    08:00 +16°C° 0 mm 3 mps 731 mmHg 79%
    09:00 +17°C° 0 mm 3 mps 731 mmHg 76%
    10:00 +17°C° 0 mm 3 mps 731 mmHg 73%
    11:00 +18°C° 0 mm 3 mps 731 mmHg 70%
    12:00 +18°C° 0.1 mm 4 mps 731 mmHg 68%
    13:00 +19°C° 0.1 mm 4 mps 731 mmHg 66%
    14:00 +20°C° 0.1 mm 4 mps 730 mmHg 64%
    15:00 +20°C° 0 mm 4 mps 730 mmHg 65%
    16:00 +19°C° 0 mm 3 mps 730 mmHg 65%
    17:00 +19°C° 0 mm 3 mps 730 mmHg 66%
    18:00 +18°C° 0 mm 3 mps 730 mmHg 71%
    19:00 +17°C° 0 mm 2 mps 730 mmHg 77%
    20:00 +15°C° 0 mm 2 mps 730 mmHg 83%
    21:00 +15°C° 0 mm 2 mps 730 mmHg 85%
    22:00 +14°C° 0 mm 2 mps 730 mmHg 86%
    23:00 +13°C° 0 mm 2 mps 731 mmHg 87%

    Tomorrow, 25 May, Saturday

    Time Temperature Precipitation Wind Pressure Humidity
    00:00 +13°C° 0 mm 2 mps 731 mmHg 87%
    01:00 +13°C° 0 mm 2 mps 731 mmHg 87%
    02:00 +13°C° 0 mm 2 mps 731 mmHg 88%
    03:00 +12°C° 0 mm 3 mps 731 mmHg 88%
    04:00 +12°C° 0 mm 3 mps 731 mmHg 88%
    05:00 +12°C° 0 mm 3 mps 731 mmHg 88%
    06:00 +13°C° 0 mm 3 mps 731 mmHg 83%
    07:00 +16°C° 0 mm 3 mps 731 mmHg 78%
    08:00 +18°C° 0 mm 3 mps 732 mmHg 73%
    09:00 +19°C° 0 mm 3 mps 732 mmHg 69%
    10:00 +20°C° 0 mm 3 mps 732 mmHg 66%
    11:00 +21°C° 0 mm 3 mps 732 mmHg 62%
    12:00 +21°C° 0.1 mm 3 mps 732 mmHg 60%
    13:00 +22°C° 0.1 mm 3 mps 732 mmHg 59%
    14:00 +22°C° 0.1 mm 3 mps 732 mmHg 57%
    15:00 +22°C° 0 mm 3 mps 732 mmHg 58%
    16:00 +22°C° 0 mm 3 mps 731 mmHg 60%
    17:00 +22°C° 0 mm 3 mps 731 mmHg 61%
    18:00 +21°C° 0 mm 2 mps 731 mmHg 68%
    19:00 +19°C° 0 mm 2 mps 732 mmHg 75%
    20:00 +18°C° 0 mm 1 mps 732 mmHg 83%
    21:00 +16°C° 0 mm 2 mps 732 mmHg 83%
    22:00 +16°C° 0 mm 2 mps 732 mmHg 84%
    23:00 +15°C° 0 mm 2 mps 733 mmHg 85%

    Day after tomorrow, 26 May, Sunday

    Time Temperature Precipitation Wind Pressure Humidity
    00:00 +15°C° 0 mm 2 mps 733 mmHg 85%
    01:00 +15°C° 0 mm 2 mps 733 mmHg 85%
    02:00 +14°C° 0 mm 2 mps 733 mmHg 85%
    03:00 +14°C° 0 mm 2 mps 733 mmHg 84%
    04:00 +14°C° 0 mm 2 mps 733 mmHg 83%
    05:00 +14°C° 0 mm 2 mps 733 mmHg 81%
    06:00 +16°C° 0 mm 2 mps 733 mmHg 77%
    07:00 +19°C° 0 mm 1 mps 733 mmHg 72%
    08:00 +21°C° 0 mm 1 mps 734 mmHg 68%
    09:00 +22°C° 0 mm 1 mps 734 mmHg 62%
    10:00 +24°C° 0 mm 1 mps 734 mmHg 55%
    11:00 +26°C° 0 mm 1 mps 734 mmHg 49%
    12:00 +27°C° 0 mm 1 mps 734 mmHg 47%
    13:00 +27°C° 0 mm 1 mps 733 mmHg 45%
    14:00 +28°C° 0 mm 1 mps 733 mmHg 43%
    15:00 +28°C° 0 mm 1 mps 733 mmHg 46%
    16:00 +27°C° 0 mm 2 mps 733 mmHg 49%
    17:00 +27°C° 0 mm 2 mps 733 mmHg 52%
    18:00 +25°C° 0 mm 1 mps 733 mmHg 60%
    19:00 +23°C° 0 mm 1 mps 733 mmHg 67%
    20:00 +21°C° 0 mm 1 mps 733 mmHg 75%
    21:00 +20°C° 0 mm 1 mps 733 mmHg 76%
    22:00 +20°C° 0 mm 1 mps 733 mmHg 76%
    23:00 +18°C° 0 mm 2 mps 734 mmHg 77%

    27 May, Monday

    Time Temperature Precipitation Wind Pressure Humidity
    00:00 +18°C° 0 mm 2 mps 733 mmHg 76%
    01:00 +18°C° 0 mm 2 mps 733 mmHg 74%
    02:00 +18°C° 0 mm 2 mps 733 mmHg 73%
    03:00 +17°C° 0 mm 2 mps 733 mmHg 73%
    04:00 +17°C° 0 mm 2 mps 733 mmHg 73%
    05:00 +17°C° 0 mm 2 mps 733 mmHg 72%
    06:00 +20°C° 0 mm 1 mps 733 mmHg 70%
    07:00 +21°C° 0 mm 1 mps 733 mmHg 67%
    08:00 +23°C° 0 mm 1 mps 733 mmHg 64%
    09:00 +24°C° 0 mm 1 mps 733 mmHg 61%
    10:00 +26°C° 0 mm 2 mps 733 mmHg 58%
    11:00 +27°C° 0 mm 2 mps 733 mmHg 54%
    12:00 +28°C° 0 mm 2 mps 732 mmHg 53%
    13:00 +29°C° 0 mm 3 mps 732 mmHg 52%
    14:00 +30°C° 0 mm 3 mps 732 mmHg 51%
    15:00 +29°C° 0.4 mm 3 mps 732 mmHg 55%
    16:00 +29°C° 0.4 mm 2 mps 732 mmHg 59%
    17:00 +28°C° 0.4 mm 2 mps 732 mmHg 63%
    18:00 +26°C° 0.2 mm 2 mps 732 mmHg 68%
    19:00 +25°C° 0.2 mm 2 mps 731 mmHg 73%
    20:00 +23°C° 0.2 mm 1 mps 731 mmHg 78%
    21:00 +22°C° 0 mm 1 mps 731 mmHg 79%
    22:00 +20°C° 0 mm 2 mps 731 mmHg 81%
    23:00 +19°C° 0 mm 2 mps 731 mmHg 82%

    28 May, Tuesday

    Time Temperature Precipitation Wind Pressure Humidity
    00:00 +19°C° 0 mm 2 mps 731 mmHg 83%
    01:00 +18°C° 0 mm 2 mps 731 mmHg 83%
    02:00 +18°C° 0 mm 2 mps 730 mmHg 84%
    03:00 +17°C° 0 mm 2 mps 730 mmHg 83%
    04:00 +17°C° 0 mm 2 mps 730 mmHg 83%
    05:00 +16°C° 0 mm 2 mps 730 mmHg 83%
    06:00 +18°C° 0 mm 2 mps 730 mmHg 77%
    07:00 +20°C° 0 mm 2 mps 730 mmHg 71%
    08:00 +23°C° 0 mm 1 mps 730 mmHg 64%
    09:00 +24°C° 0 mm 2 mps 730 mmHg 57%
    10:00 +26°C° 0 mm 2 mps 729 mmHg 50%
    11:00 +28°C° 0 mm 2 mps 729 mmHg 42%
    12:00 +29°C° 0 mm 2 mps 729 mmHg 40%
    13:00 +29°C° 0 mm 3 mps 729 mmHg 38%
    14:00 +30°C° 0 mm 3 mps 728 mmHg 36%
    15:00 +30°C° 0 mm 3 mps 728 mmHg 40%
    16:00 +29°C° 0 mm 3 mps 728 mmHg 45%
    17:00 +28°C° 0 mm 3 mps 727 mmHg 49%
    18:00 +26°C° 0 mm 2 mps 728 mmHg 56%
    19:00 +24°C° 0 mm 2 mps 728 mmHg 63%
    20:00 +21°C° 0 mm 2 mps 728 mmHg 70%
    21:00 +20°C° 0.1 mm 2 mps 728 mmHg 71%
    22:00 +19°C° 0.1 mm 2 mps 729 mmHg 72%
    23:00 +18°C° 0.1 mm 2 mps 729 mmHg 74%

    29 May, Wednesday

    Time Temperature Precipitation Wind Pressure Humidity
    00:00 +18°C° 0 mm 2 mps 729 mmHg 74%
    01:00 +17°C° 0 mm 2 mps 729 mmHg 75%
    02:00 +17°C° 0 mm 2 mps 730 mmHg 76%
    03:00 +17°C° 0 mm 2 mps 730 mmHg 76%
    04:00 +17°C° 0 mm 2 mps 730 mmHg 77%
    05:00 +16°C° 0 mm 2 mps 731 mmHg 77%
    06:00 +18°C° 0 mm 2 mps 731 mmHg 73%
    07:00 +20°C° 0 mm 2 mps 731 mmHg 70%
    08:00 +23°C° 0 mm 1 mps 732 mmHg 66%
    09:00 +24°C° 0 mm 1 mps 732 mmHg 60%
    10:00 +26°C° 0 mm 1 mps 732 mmHg 54%
    11:00 +27°C° 0 mm 1 mps 732 mmHg 48%
    12:00 +28°C° 0.1 mm 1 mps 732 mmHg 48%
    13:00 +28°C° 0.1 mm 1 mps 732 mmHg 47%
    14:00 +28°C° 0.1 mm 1 mps 732 mmHg 47%
    15:00 +28°C° 0.1 mm 1 mps 732 mmHg 49%
    16:00 +28°C° 0.1 mm 1 mps 732 mmHg 51%
    17:00 +28°C° 0.1 mm 1 mps 732 mmHg 53%
    18:00 +26°C° 0.1 mm 1 mps 732 mmHg 59%
    19:00 +24°C° 0.1 mm 1 mps 732 mmHg 65%
    20:00 +22°C° 0.1 mm 1 mps 733 mmHg 72%
    21:00 +21°C° 0 mm 1 mps 733 mmHg 73%
    22:00 +21°C° 0 mm 1 mps 734 mmHg 75%
    23:00 +19°C° 0 mm 2 mps 734 mmHg 77%
    Show more